Latest Coastal Weather Observations for Cape Wessel

IDD60701

Issued at 1:45 pm CST Monday 22 September 2014 (issued every 10 minutes, with the page automatically refreshed every 10 minutes)

About coastal observations | Map of coastal stations | Coastal observations for NT | Marine services | Other Formats
Station Details ID: 200786 Name: CAPE WESSEL Lat: -11.00 Lon: 136.76 Height: 18.0 m
Data from the previous 72 hours. | See also: Recent months for locations in Northern Territory
Date/Time
CST
Temp

°C
Wind Pressure Rain
since 9am
mm
Weather Cloud Vis
km
Sea
Height
m
Swell
Dir
 
Speed
knots
Gust
knots
hPa Trend Height
m
Period
s
Dir
22/01:30pm 31.3 SE 13 17 1012.4 - 0.0 - - - - - - -
22/01:00pm 31.3 SE 13 17 1012.9 - 0.0 - - - - - - -
22/12:30pm 30.9 SE 14 17 1013.3 - 0.0 - - - - - - -
22/12:00pm 31.3 SE 14 17 1013.6 - 0.0 - - - - - - -
22/11:30am 30.8 ESE 13 16 1014.2 - 0.0 - - - - - - -
22/11:00am 30.2 ESE 13 16 1014.6 - 0.0 - - - - - - -
22/10:30am 30.1 ESE 12 16 1014.9 - 0.0 - - - - - - -
22/10:00am 29.6 ESE 13 15 1015.2 - 0.0 - - - - - - -
22/09:30am 29.6 E 12 15 1015.6 - 0.0 - - - - - - -
22/09:00am 28.1 E 12 15 1015.5 - 0.0 - - - - - - -
22/08:30am 28.0 E 12 15 1015.5 - 0.0 - - - - - - -
22/08:00am 27.3 E 12 16 1015.1 - 0.0 - - - - - - -
22/07:30am 26.2 E 12 14 1014.7 - 0.0 - - - - - - -
22/07:00am 25.2 E 12 15 1014.6 - 0.0 - - - - - - -
22/06:30am 24.5 E 11 13 1014.1 - 0.0 - - - - - - -
22/06:00am 24.2 E 9 11 1013.7 - 0.0 - - - - - - -
22/05:30am 24.0 E 9 11 1013.3 - 0.0 - - - - - - -
22/05:00am 24.0 E 9 11 1013.1 - 0.0 - - - - - - -
22/04:30am 23.8 E 9 11 1013.0 - 0.0 - - - - - - -
22/04:00am 23.9 E 9 11 1012.8 - 0.0 - - - - - - -
22/03:30am 24.0 E 10 11 1012.7 - 0.0 - - - - - - -
22/03:00am 24.1 E 10 12 1012.8 - 0.0 - - - - - - -
22/02:30am 24.3 E 11 14 1012.8 - 0.0 - - - - - - -
22/02:00am 24.3 E 12 15 1013.0 - 0.0 - - - - - - -
22/01:30am 24.6 E 13 16 1013.4 - 0.0 - - - - - - -
22/01:00am 24.6 E 12 14 1013.6 - 0.0 - - - - - - -
22/12:30am 24.4 E 12 13 1013.7 - 0.0 - - - - - - -
22/12:00am 24.7 E 12 14 1013.9 - 0.0 - - - - - - -
 
Date/Time
CST
Temp

°C
Wind Pressure Rain
since 9am
mm
Weather Cloud Vis
km
Sea
Height
m
Swell
Dir
 
Speed
knots
Gust
knots
hPa Trend Height
m
Period
s
Dir
21/11:30pm 24.9 E 12 15 1014.4 - 0.0 - - - - - - -
21/11:00pm 25.1 ESE 14 17 1014.6 - 0.0 - - - - - - -
21/10:30pm 25.2 ESE 13 16 1014.7 - 0.0 - - - - - - -
21/10:00pm 25.3 ESE 14 17 1014.8 - 0.0 - - - - - - -
21/09:30pm 25.4 ESE 13 17 1014.7 - 0.0 - - - - - - -
21/09:00pm 25.5 SE 13 17 1014.6 - 0.0 - - - - - - -
21/08:30pm 25.5 ESE 12 15 1014.1 - 0.0 - - - - - - -
21/08:00pm 25.4 ESE 12 15 1014.0 - 0.0 - - - - - - -
21/07:30pm 25.5 ESE 12 15 1013.6 - 0.0 - - - - - - -
21/07:00pm 25.5 ESE 12 14 1013.3 - 0.0 - - - - - - -
21/06:30pm 25.7 ESE 11 14 1013.1 - 0.0 - - - - - - -
21/06:00pm 26.1 ESE 13 15 1012.7 - 0.0 - - - - - - -
21/05:30pm 27.3 ESE 12 15 1012.6 - 0.0 - - - - - - -
21/05:00pm 28.1 ESE 11 14 1012.5 - 0.0 - - - - - - -
21/04:30pm 28.9 E 10 12 1012.2 - 0.0 - - - - - - -
21/04:00pm 28.8 E 10 12 1011.8 - 0.0 - - - - - - -
21/03:30pm 29.5 E 10 12 1011.5 - 0.0 - - - - - - -
21/03:00pm 30.3 E 10 13 1011.6 - 0.0 - - - - - - -
21/02:30pm 30.2 E 11 14 1012.0 - 0.0 - - - - - - -
21/02:00pm 30.7 E 11 14 1012.0 - 0.0 - - - - - - -
21/01:30pm 31.0 E 11 13 1012.4 - 0.0 - - - - - - -
21/01:00pm 31.2 E 11 14 1012.9 - 0.0 - - - - - - -
21/12:30pm 30.7 E 11 14 1013.5 - 0.0 - - - - - - -
21/12:00pm 30.7 E 11 14 1014.0 - 0.0 - - - - - - -
21/11:30am 31.4 E 10 13 1014.7 - 0.0 - - - - - - -
21/11:00am 30.1 E 11 13 1015.3 - 0.0 - - - - - - -
21/10:30am 29.7 E 11 13 1015.4 - 0.0 - - - - - - -
21/10:00am 28.4 ENE 11 14 1015.7 - 0.0 - - - - - - -
21/09:30am 29.9 E 10 14 1015.6 - 0.0 - - - - - - -
21/09:00am 28.5 E 11 13 1015.2 - 0.0 - - - - - - -
21/08:30am 27.9 E 9 12 1015.1 - 0.0 - - - - - - -
21/08:00am 26.2 E 10 12 1014.9 - 0.0 - - - - - - -
21/07:30am 25.5 E 9 11 1014.6 - 0.0 - - - - - - -
21/07:00am 25.0 E 10 12 1013.9 - 0.0 - - - - - - -
21/06:30am 24.5 E 9 11 1013.4 - 0.0 - - - - - - -
21/06:00am 24.4 E 9 10 1013.1 - 0.0 - - - - - - -
21/05:30am 24.4 E 9 10 1012.7 - 0.0 - - - - - - -
21/05:00am 24.4 ENE 7 9 1012.2 - 0.0 - - - - - - -
21/04:30am 24.4 ENE 7 9 1012.0 - 0.0 - - - - - - -
21/04:00am 24.4 ENE 8 10 1011.9 - 0.0 - - - - - - -
21/03:30am 24.2 ENE 7 9 1011.8 - 0.0 - - - - - - -
21/03:00am 24.1 E 8 10 1011.8 - 0.0 - - - - - - -
21/02:30am 23.9 E 7 9 1012.2 - 0.0 - - - - - - -
21/02:00am 24.0 E 7 9 1012.2 - 0.0 - - - - - - -
21/01:30am 24.0 E 7 8 1012.7 - 0.0 - - - - - - -
21/01:00am 24.1 ESE 7 8 1013.1 - 0.0 - - - - - - -
21/12:30am 24.2 ESE 8 9 1013.5 - 0.0 - - - - - - -
21/12:00am 24.2 ESE 8 10 1013.7 - 0.0 - - - - - - -
 
Date/Time
CST
Temp

°C
Wind Pressure Rain
since 9am
mm
Weather Cloud Vis
km
Sea
Height
m
Swell
Dir
 
Speed
knots
Gust
knots
hPa Trend Height
m
Period
s
Dir
20/11:30pm 24.4 ESE 9 11 1014.1 - 0.0 - - - - - - -
20/11:00pm 24.5 E 10 12 1014.1 - 0.0 - - - - - - -
20/10:30pm 24.4 ESE 10 13 1014.2 - 0.0 - - - - - - -
20/10:00pm 24.5 ESE 10 13 1014.0 - 0.0 - - - - - - -
20/09:30pm 24.6 ESE 11 13 1013.8 - 0.0 - - - - - - -
20/09:00pm 24.6 ESE 11 14 1013.7 - 0.0 - - - - - - -
20/08:30pm 24.7 ESE 12 14 1013.6 - 0.0 - - - - - - -
20/08:00pm 24.7 ESE 11 13 1013.5 - 0.0 - - - - - - -
20/07:30pm 24.8 ESE 11 13 1013.1 - 0.0 - - - - - - -
20/07:00pm 24.8 ESE 10 12 1012.8 - 0.0 - - - - - - -
20/06:30pm 25.1 ESE 11 13 1012.5 - 0.0 - - - - - - -
20/06:00pm 25.7 ESE 12 14 1012.3 - 0.0 - - - - - - -
20/05:30pm 26.8 ESE 11 14 1012.3 - 0.0 - - - - - - -
20/05:00pm 27.7 SE 11 14 1012.0 - 0.0 - - - - - - -
20/04:30pm 28.4 SE 10 13 1011.8 - 0.0 - - - - - - -
20/04:00pm 29.1 SE 11 13 1011.8 - 0.0 - - - - - - -
20/03:30pm 29.3 SE 10 13 1011.9 - 0.0 - - - - - - -
20/03:00pm 30.2 ESE 10 12 1012.0 - 0.0 - - - - - - -
20/02:30pm 30.9 ESE 10 12 1012.2 - 0.0 - - - - - - -
20/02:00pm 30.2 ESE 10 13 1012.7 - 0.0 - - - - - - -
20/01:30pm 30.5 ESE 10 13 1013.2 - 0.0 - - - - - - -
20/01:00pm 29.9 ESE 10 13 1013.8 - 0.0 - - - - - - -
20/12:30pm 29.5 ESE 11 13 1014.2 - 0.0 - - - - - - -
20/12:00pm 30.7 ESE 12 14 1014.6 - 0.0 - - - - - - -
20/11:30am 29.9 E 12 15 1015.3 - 0.0 - - - - - - -
20/11:00am 29.9 E 12 15 1015.4 - 0.0 - - - - - - -
20/10:30am 30.0 E 11 15 1015.6 - 0.0 - - - - - - -
20/10:00am 29.4 E 11 15 1015.6 - 0.0 - - - - - - -
20/09:30am 29.0 ENE 11 15 1015.5 - 0.0 - - - - - - -
20/09:00am 28.3 ENE 11 13 1015.4 - 0.0 - - - - - - -
20/08:30am 28.0 ENE 10 13 1015.3 - 0.0 - - - - - - -
20/08:00am 27.3 E 10 14 1015.3 - 0.0 - - - - - - -
20/07:30am 26.2 E 12 15 1015.3 - 0.0 - - - - - - -
20/07:00am 25.2 E 12 15 1014.8 - 0.0 - - - - - - -
20/06:30am 24.5 E 13 16 1014.3 - 0.0 - - - - - - -
20/06:00am 24.4 E 14 16 1013.8 - 0.0 - - - - - - -
20/05:30am 24.4 ESE 13 16 1013.7 - 0.0 - - - - - - -
20/05:00am 24.3 ESE 12 15 1013.2 - 0.0 - - - - - - -
20/04:30am 24.2 ESE 12 15 1012.9 - 0.0 - - - - - - -
20/04:00am 24.2 ESE 12 15 1012.8 - 0.0 - - - - - - -
20/03:30am 24.1 ESE 12 14 1012.7 - 0.0 - - - - - - -
20/03:00am 24.0 SE 12 14 1012.6 - 0.0 - - - - - - -
20/02:30am 24.0 SE 13 15 1012.8 - 0.0 - - - - - - -
20/02:00am 24.1 SE 12 14 1012.9 - 0.0 - - - - - - -
20/01:30am 24.1 SE 12 14 1013.2 - 0.0 - - - - - - -
20/01:00am 23.8 SE 12 14 1013.4 - 0.0 - - - - - - -
20/12:30am 24.0 SE 12 14 1013.7 - 0.0 - - - - - - -
20/12:00am 24.1 ESE 12 14 1014.0 - 0.0 - - - - - - -
 
Date/Time
CST
Temp

°C
Wind Pressure Rain
since 9am
mm
Weather Cloud Vis
km
Sea
Height
m
Swell
Dir
 
Speed
knots
Gust
knots
hPa Trend Height
m
Period
s
Dir
19/11:30pm 24.3 SE 12 14 1014.5 - 0.0 - - - - - - -
19/11:00pm 24.4 ESE 12 14 1014.6 - 0.0 - - - - - - -
19/10:30pm 24.3 ESE 12 15 1014.7 - 0.0 - - - - - - -
19/10:00pm 24.5 ESE 13 15 1014.7 - 0.0 - - - - - - -
19/09:30pm 24.6 ESE 12 14 1014.8 - 0.0 - - - - - - -
19/09:00pm 24.8 ESE 14 17 1014.5 - 0.0 - - - - - - -
19/08:30pm 24.9 ESE 14 17 1014.3 - 0.0 - - - - - - -
19/08:00pm 25.2 ESE 15 17 1014.0 - 0.0 - - - - - - -
19/07:30pm 25.2 ESE 14 17 1013.6 - 0.0 - - - - - - -
19/07:00pm 25.4 ESE 14 19 1013.1 - 0.0 - - - - - - -
19/06:30pm 25.5 ESE 14 18 1013.0 - 0.0 - - - - - - -
19/06:00pm 26.1 ESE 14 18 1012.7 - 0.0 - - - - - - -
19/05:30pm 26.8 ESE 16 20 1012.5 - 0.0 - - - - - - -
19/05:00pm 27.7 ESE 16 19 1012.3 - 0.0 - - - - - - -
19/04:30pm 28.3 ESE 17 19 1012.1 - 0.0 - - - - - - -
19/04:00pm 28.7 ESE 16 19 1012.2 - 0.0 - - - - - - -
19/03:30pm 29.3 ESE 17 20 1012.3 - 0.0 - - - - - - -
19/03:00pm 29.9 SE 16 20 1012.4 - 0.0 - - - - - - -
19/02:30pm 30.2 ESE 17 19 1012.7 - 0.0 - - - - - - -
19/02:00pm 30.6 SE 16 21 1012.9 - 0.0 - - - - - - -

Other Formats:

Comma delimited format used in spreadsheet applications
http://www.bom.gov.au/fwo/IDD60701/IDD60701.94147.axf

JavaScript Object Notation format (JSON) in row-major order
http://www.bom.gov.au/fwo/IDD60701/IDD60701.94147.json